Content
SEND FEEDBACK

Daily
Averages
Monthly
Summary
United States of America

NATRONA HEIGHTS, PENNSYLVANIA


Home > North America > United States > Pennsylvania
Elevation: 800 feet     Latitude: 40 37N     Longitude: 079 43W

WEATHER
 
SELECT A DAY
Number of Records: 436,439;   Date Range: 1/1/95 - 7/22/14
 
SHARE

PRINT THIS DATA

[ ← Previous Day ]
WEATHER ALMANAC - JANUARY 23, 2013
[ Next Day → ]
[ °C ]   °F
Weather ElementAverageHighLow
Temperature8 °F12.2 °F (11:55 am)1.4 °F (5:55 am)
Dewpoint0.6 °F6.8 °F (8:55 pm)-5.8 °F (4:15 am)
Humidity72.4 %85 % (5:55 am)57 % (11:55 am)
Barometer30.17 in30.24 in (9:15 am)30.03 in (11:55 pm)
Wind Speed6.4 mph13.8 mph (12:15 pm)
Wind Gust20.7 mph (12:15 pm)
Weather ElementAverage
Visibility8.6 mi
Wind DirectionSSW (193.4 °)

Weather ElementTotal
Precipitation---
Heating Degree Days58.2 (Base 65)
Averaged from 70 records on January 23, 2013
WEATHER CONDITIONS BREAKOUT
WIND DIRECTION BREAKOUT
WEATHER BY HOUR - JANUARY 23, 2013
[ °C ]   °F
Local TimeTemperatureDewpointHumidityBarometerVisibilityWind DirectionWind SpeedGust SpeedPrecipitationEventsConditions
12:35 AM5.0 °F-0.4 °F78 %30.20 in10.0 miWSW (240°)9.2 mphClear
12:55 AM5.0 °F-0.4 °F78 %30.20 in10.0 miSW (230°)9.2 mphClear
1:15 AM5.0 °F-0.4 °F78 %30.21 in10.0 miWSW (240°)9.2 mphClear
1:35 AM5.0 °F-2.2 °F72 %30.20 in10.0 miSW (230°)10.4 mphClear
1:55 AM5.0 °F-2.2 °F72 %30.20 in10.0 miWSW (240°)11.5 mphClear
2:15 AM5.0 °F-2.2 °F72 %30.21 in10.0 miSW (230°)9.2 mphClear
2:35 AM3.2 °F-2.2 °F78 %30.22 in10.0 miWSW (240°)5.8 mphClear
2:55 AM3.2 °F-2.2 °F78 %30.22 in10.0 miSW (230°)6.9 mphClear
3:15 AM3.2 °F-4.0 °F72 %30.22 in10.0 miWSW (240°)5.8 mphClear
3:35 AM3.2 °F-2.2 °F78 %30.21 in10.0 miWSW (250°)6.9 mphClear
3:55 AM3.2 °F-2.2 °F78 %30.21 in10.0 miSW (230°)8.1 mphClear
4:15 AM3.2 °F-5.8 °F66 %30.21 in10.0 miWSW (240°)8.1 mphClear
4:35 AM3.2 °F-4.0 °F72 %30.21 in10.0 miWSW (240°)5.8 mphClear
4:55 AM3.2 °F-4.0 °F72 %30.22 in10.0 miWSW (240°)8.1 mphClear
5:15 AM3.2 °F-4.0 °F72 %30.21 in10.0 miSW (230°)6.9 mphClear
5:35 AM3.2 °F-2.2 °F78 %30.22 in10.0 miSW (230°)4.6 mphClear
5:55 AM1.4 °F-2.2 °F85 %30.22 in10.0 miSW (230°)5.8 mphClear
6:15 AM1.4 °F-4.0 °F78 %30.21 in10.0 miSW (230°)6.9 mphClear
6:35 AM1.4 °F-5.8 °F72 %30.22 in10.0 miWSW (240°)5.8 mphClear
6:55 AM1.4 °F-2.2 °F85 %30.22 in10.0 miSW (230°)4.6 mphClear
7:15 AM1.4 °F-5.8 °F72 %30.22 in10.0 miSSW (210°)4.6 mphClear
7:35 AM1.4 °F-2.2 °F85 %30.22 in10.0 miSW (230°)5.8 mphClear
7:55 AM1.4 °F-5.8 °F72 %30.23 in10.0 miSW (230°)5.8 mphClear
8:15 AM1.4 °F-2.2 °F85 %30.23 in10.0 miSW (230°)5.8 mphClear
8:35 AM3.2 °F-2.2 °F78 %30.23 in10.0 miSW (230°)6.9 mphClear
8:55 AM3.2 °F-2.2 °F78 %30.23 in10.0 miSW (230°)5.8 mphClear
9:15 AM5.0 °F-0.4 °F78 %30.24 in10.0 miSW (230°)4.6 mphClear
9:35 AM6.8 °F-0.4 °F72 %30.24 in10.0 miWSW (240°)5.8 mphClear
9:55 AM6.8 °F-0.4 °F72 %30.24 in10.0 miSW (220°)6.9 mphPartly Cloudy
10:15 AM8.6 °F-0.4 °F67 %30.24 in10.0 miSW (230°)5.8 mphPartly Cloudy
10:35 AM8.6 °F-0.4 °F67 %30.24 in10.0 miSW (230°)11.5 mphClear
10:55 AM10.4 °F1.4 °F67 %30.23 in10.0 miWSW (250°)10.4 mphClear
11:15 AM10.4 °F1.4 °F67 %30.23 in10.0 miWSW (240°)9.2 mph16.1 mphClear
11:35 AM10.4 °F-0.4 °F62 %30.22 in10.0 miWest (260°)11.5 mph16.1 mphPartly Cloudy
11:55 AM12.2 °F-0.4 °F57 %30.21 in10.0 miWSW (250°)12.7 mph16.1 mphPartly Cloudy
12:15 PM12.2 °F-0.4 °F57 %30.20 in10.0 miWSW (250°)13.8 mph20.7 mphScattered Clouds
12:35 PM12.2 °F-0.4 °F57 %30.18 in10.0 miWest (270°)11.5 mphPartly Cloudy
12:55 PM12.2 °F-0.4 °F57 %30.18 in10.0 miWest (260°)10.4 mphMostly Cloudy
1:15 PM12.2 °F1.4 °F62 %30.17 in10.0 miWSW (240°)11.5 mphMostly Cloudy
1:35 PM12.2 °F1.4 °F62 %30.16 in10.0 miWSW (240°)6.9 mphMostly Cloudy
1:55 PM12.2 °F1.4 °F62 %30.16 in10.0 miWSW (250°)9.2 mph18.4 mphMostly Cloudy
2:15 PM12.2 °F1.4 °F62 %30.15 in9.0 miWSW (240°)8.1 mph18.4 mphMostly Cloudy
2:35 PM12.2 °F3.2 °F67 %30.15 in6.0 miWSW (250°)8.1 mphMostly Cloudy
2:55 PM12.2 °F3.2 °F67 %30.15 in5.0 miSW (230°)10.4 mphOvercast
3:15 PM12.2 °F3.2 °F67 %30.15 in9.0 miSW (220°)8.1 mphOvercast
3:35 PM12.2 °F3.2 °F67 %30.14 in5.0 miSW (230°)5.8 mphOvercast
3:55 PM12.2 °F3.2 °F67 %30.14 in8.0 miSW (220°)10.4 mphOvercast
4:15 PM12.2 °F3.2 °F67 %30.14 in4.0 miSSW (210°)6.9 mphOvercast
4:35 PM12.2 °F3.2 °F67 %30.13 in3.0 miSW (220°)9.2 mphOvercast
4:55 PM12.2 °F3.2 °F67 %30.13 in9.0 miSW (220°)8.1 mphMostly Cloudy
5:15 PM12.2 °F3.2 °F67 %30.13 in10.0 miSW (230°)6.9 mphMostly Cloudy
5:35 PM12.2 °F1.4 °F62 %30.12 in10.0 miSW (230°)6.9 mphScattered Clouds
5:55 PM12.2 °F1.4 °F62 %30.12 in10.0 miSW (230°)6.9 mphClear
6:15 PM12.2 °F1.4 °F62 %30.11 in10.0 miSW (230°)5.8 mphClear
6:35 PM12.2 °F1.4 °F62 %30.10 in10.0 miSW (220°)4.6 mphClear
6:55 PM10.4 °F1.4 °F67 %30.10 in10.0 miSSW (200°)3.5 mphClear
7:15 PM10.4 °F3.2 °F73 %30.09 in10.0 miCalmClear
7:35 PM10.4 °F3.2 °F73 %30.09 in10.0 miCalmClear
7:55 PM10.4 °F3.2 °F73 %30.10 in10.0 miCalmMostly Cloudy
8:15 PM10.4 °F5.0 °F79 %30.09 in5.0 miCalmOvercast
8:35 PM10.4 °F5.0 °F79 %30.09 in3.0 miCalmOvercast
8:55 PM10.4 °F6.8 °F85 %30.08 in4.0 miCalmScattered Clouds
9:15 PM10.4 °F5.0 °F79 %30.08 in5.0 miCalmClear
9:35 PM10.4 °F6.8 °F85 %30.08 in5.0 miCalmClear
9:55 PM10.4 °F6.8 °F85 %30.08 in4.0 miEast (80°)3.5 mphClear
10:15 PM10.4 °F6.8 °F85 %30.07 in5.0 miCalmClear
10:35 PM10.4 °F6.8 °F85 %30.06 in3.0 miCalmClear
11:15 PM10.4 °F6.8 °F85 %30.05 in4.0 miESE (110°)3.5 mphClear
11:35 PM10.4 °F6.8 °F85 %30.04 in4.0 miESE (120°)3.5 mphClear
11:55 PM10.4 °F6.8 °F85 %30.03 in3.0 miESE (120°)3.5 mphScattered Clouds
Hourly data recorded from KBTP, located miles away from Natrona Heights, Pennsylvania







STORIES FROM OUR PARTNERS